Location: Songkhla
(7.2000°N, 100.6000°E)
Time: 03:06:24
(UTC+07:00)

BRICSAT 2 - Pass Details

Date: 17 June 2021
Orbit: 295 x 638 km, 28.5° (Epoch: 28 July)

Event Time Altitude Azimuth Distance (km) Brightness Sun altitude
Rises 00:04:28 0° 290° (WNW) 2,957 - -59.2°
Reaches altitude 10° 00:06:56 10° 284° (WNW) 2,058 - -59.3°
Maximum altitude 00:11:37 47° 211° (SSW) 859 - -59.4°
Drops below altitude 10° 00:16:12 10° 137° (SE) 2,007 - -59.4°
Sets 00:18:35 0° 131° (SE) 2,877 - -59.4°
